GAOFEN 11 04

导读

GAOFEN 11 04(高分十一号04星)是中国研制的光学遥感卫星,隶属于高分辨率对地观测系统国家科技重大专项,于北京时间2022年12月27日在太原卫星发射中心,由长征四号乙运载火箭发射升空,顺利进入预定轨道。该卫星地面像元分辨率最高可达亚米级,主要应用于国土普查、城市规划、土地确权、路网设计、农作物估产和防灾减灾等领域,可为“一带一路”等国家重大战略实施提供信息保障。

Basic Information
目录编号:
54818
目录名称:
GAOFEN 11 04
国际标识:
2022-176A
轨道中心:
EARTH
卫星名称:
GAOFEN 11 04
卫星全名:
--
卫星状态:
在轨 (已飞行1358 天)
发射日期:
2022-12-27 UTC
国别 :
中国 (CN)
星等 :
--
This satellite is enrolled in the Space Conjunction Data Service (SCDS) and the current flight risk assessment level is: No High Risk
Orbit Information
数据来源 国际轨道数据
星历时间: 2026-09-15T22:59:08+0800
7小时前
查看轨道信息
半长轴: 6872.94km
偏心率: 0.000761
轨道倾角: 97.436°
近地点辐角 17.772°
升交点赤经 30.911°
平近点角 342.378°
近地点: 489.572km
远地点: 500.034km
周期: 94.509分钟
每日圈数: 15.236633
Detailed Information
使用方式:
暂无
2D Orbit Map
3D Orbit Map
Orbit Altitude Analysis Chart
Orbit Inclination Analysis Chart
Orbit Comprehensive Analysis Chart
View Comprehensive Chart
Conjunction Data List
Event ID Objects TCA Miss Dist (km) Collision Risk Probability Collision Risk Index (CRI) Action
CDM_260916-055205-481806-846727
2026-09-16T
05:52:41+0000
1.962 km
极远距离
3.04187E-6 低风险 0.45
CDM_260910-174705-481806-104821
2026-09-10T
17:47:30+0000
2.979 km
极远距离
1.226306E-6 低风险 0.37
Miss Distance Evolution Trend with All Objects Subscribe to Flight Safety Assessment
Collision Probability Evolution Trend with All Objects Subscribe to Flight Safety Assessment